Pittsburg, KS

10:36 AM CDT on July 26, 2017 (GMT -0500)
Atkinson Municipal

Weather History for KPTS - November, 2012

Change the Weather History Date:

Thursday, November 1, 2012

  Actual Average (KJLN) Record (KJLN)
Temperature  
Mean Temperature 54 °F -  
Max Temperature 74 °F 64 °F 83 °F (2016)
Min Temperature 35 °F 44 °F 22 °F (1991)
Degree Days  
Heating Degree Days 10    
Growing Degree Days 4 (Base 50)    
Moisture  
Dew Point 39 °F    
Average Humidity 68    
Maximum Humidity 100    
Minimum Humidity 29    
Precipitation  
Precipitation 0.00 in - - ()
Sea Level Pressure  
Sea Level Pressure 29.98 in    
Wind  
Wind Speed 2 mph (WSW)    
Max Wind Speed 13 mph    
Max Gust Speed 16 mph    
Visibility 10 miles    
Events      
Averages and records for this station are not official NWS values.
T = Trace of Precipitation, MM = Missing Value Source: NWS Daily Summary

Daily Weather History Graph

Daily Weather History Graph

Search for Another Location

Airport or City:

Trip Planner

Search our weather history database for the weather conditions in past years. The results will help you decide how hot, cold, wet, or windy it might be!

Date:

Astronomy

Nov. 01, 2012 Rise Set
Actual Time 7:44 AM CDT 6:20 PM CDT
Civil Twilight 7:17 AM CDT 6:47 PM CDT
Nautical Twilight 6:46 AM CDT 7:18 PM CDT
Astronomical Twilight 6:15 AM CDT 7:48 PM CDT
Moon 8:20 PM CDT (11/1) 10:14 AM CDT (11/1)
Length of Visible Light 11h 30m
Length of Day
10h 35m
Waning Gibbous, 93% of the Moon is Illuminated
Nov 1
Waning Gibbous
Nov 6
Last Quarter
Nov 13
New
Nov 20
First Quarter
Nov 28
Full

Hourly Weather History & Observations

Time (CDT) Temp. Windchill Dew Point Humidity Pressure Visibility Wind Dir Wind Speed Gust Speed Precip Events Conditions
12:15 AM 38.8 °F - 39.2 °F 100% 30.03 in 10.0 mi Calm Calm - N/A   Clear
12:35 AM 38.8 °F - 39.2 °F 100% 30.03 in 10.0 mi Calm Calm - N/A   Clear
12:55 AM 38.5 °F - 38.7 °F 100% 30.03 in 10.0 mi Calm Calm - N/A   Clear
1:15 AM 36.7 °F - 36.7 °F 100% 30.03 in 10.0 mi Calm Calm - N/A   Clear
1:35 AM 36.5 °F - 36.5 °F 100% 30.02 in 10.0 mi Calm Calm - N/A   Clear
1:55 AM 36.5 °F - 36.5 °F 100% 30.02 in 10.0 mi Calm Calm - N/A   Clear
2:15 AM 37.0 °F - 37.0 °F 100% 30.03 in 10.0 mi Calm Calm - N/A   Clear
2:35 AM 36.5 °F - 36.5 °F 100% 30.03 in 10.0 mi Calm Calm - N/A   Clear
2:55 AM 36.5 °F - 36.5 °F 100% 30.03 in 10.0 mi Calm Calm - N/A   Clear
3:15 AM 36.5 °F - 36.5 °F 100% 30.02 in 10.0 mi Calm Calm - N/A   Clear
3:35 AM 36.5 °F - 36.5 °F 100% 30.02 in 10.0 mi Calm Calm - N/A   Clear
3:55 AM 36.5 °F - 36.5 °F 100% 30.02 in 10.0 mi Calm Calm - N/A   Clear
4:15 AM 36.0 °F - 36.0 °F 100% 30.02 in 10.0 mi Calm Calm - N/A   Clear
4:35 AM 35.2 °F - 35.4 °F 100% 30.01 in 10.0 mi Calm Calm - N/A   Clear
4:55 AM 35.4 °F - 35.6 °F 100% 30.01 in 10.0 mi Calm Calm - N/A   Clear
5:15 AM 36.5 °F - 36.5 °F 100% 30.02 in 10.0 mi Calm Calm - N/A   Clear
5:35 AM 36.5 °F - 36.5 °F 100% 30.02 in 10.0 mi Calm Calm - N/A   Clear
5:55 AM - - - N/A% 30.02 in 10.0 mi Calm Calm - N/A   Clear
6:15 AM 36.1 °F - 36.1 °F 100% 30.02 in 10.0 mi Calm Calm - N/A   Clear
6:35 AM 36.1 °F - 36.3 °F 100% 30.02 in 10.0 mi Calm Calm - N/A   Clear
6:55 AM 35.8 °F - 36.0 °F 100% 30.02 in 10.0 mi Calm Calm - N/A   Clear
7:15 AM 36.3 °F - 36.3 °F 100% 30.01 in 10.0 mi Calm Calm - N/A   Clear
7:35 AM 36.9 °F - 37.0 °F 100% 30.01 in 10.0 mi Calm Calm - N/A   Clear
7:55 AM 36.9 °F - 36.9 °F 100% 30.01 in 10.0 mi Calm Calm - N/A   Clear
8:15 AM 36.5 °F - 36.5 °F 100% 30.01 in 10.0 mi Calm Calm - N/A   Clear
8:35 AM 38.3 °F - 38.7 °F 100% 30.02 in 10.0 mi Calm Calm - N/A   Clear
8:55 AM 40.6 °F - 40.8 °F 100% 30.02 in 10.0 mi Calm Calm - N/A   Clear
9:15 AM 45.5 °F 44.2 °F 42.3 °F 88% 30.02 in 10.0 mi SSW 3.5 mph - N/A   Clear
9:35 AM 49.1 °F - 40.3 °F 72% 30.02 in 10.0 mi South 3.5 mph - N/A   Clear
9:55 AM 51.3 °F - 39.7 °F 65% 30.02 in 10.0 mi SSW 3.5 mph - N/A   Clear
10:15 AM 54.3 °F - 40.8 °F 60% 30.02 in 10.0 mi South 3.5 mph - N/A   Clear
10:35 AM 56.3 °F - 40.1 °F 55% 30.02 in 10.0 mi South 5.8 mph - N/A   Clear
10:55 AM 58.8 °F - 39.9 °F 50% 30.02 in 10.0 mi SSW 6.9 mph - N/A   Clear
11:15 AM 61.2 °F - 39.7 °F 45% 30.02 in 10.0 mi SW 5.8 mph - N/A   Clear
11:35 AM 63.3 °F - 39.4 °F 41% 30.02 in 10.0 mi SSW 6.9 mph - N/A   Clear
11:55 AM 64.6 °F - 39.0 °F 39% 30.01 in 10.0 mi SSW 6.9 mph - N/A   Clear
12:15 PM 66.0 °F - 39.4 °F 38% 30.01 in 10.0 mi South 5.8 mph - N/A   Clear
12:35 PM 68.5 °F - 39.6 °F 35% 30.00 in 10.0 mi SW 8.1 mph - N/A   Clear
12:55 PM 69.1 °F - 39.4 °F 34% 29.99 in 10.0 mi WSW 10.4 mph - N/A   Clear
1:15 PM 69.1 °F - 39.4 °F 34% 29.98 in 10.0 mi West 8.1 mph - N/A   Clear
1:35 PM 69.1 °F - 39.0 °F 33% 29.97 in 10.0 mi WSW 10.4 mph - N/A   Clear
1:55 PM 69.1 °F - 38.8 °F 33% 29.96 in 10.0 mi WSW 8.1 mph 16.1 mph N/A   Clear
2:15 PM 69.6 °F - 39.0 °F 33% 29.95 in 10.0 mi WSW 8.1 mph - N/A   Clear
2:35 PM 70.9 °F - 40.3 °F 33% 29.94 in 10.0 mi SW 8.1 mph - N/A   Clear
2:55 PM 72.0 °F - 40.3 °F 32% 29.93 in 10.0 mi WSW 12.7 mph - N/A   Clear
3:15 PM 72.5 °F - 40.3 °F 31% 29.93 in 10.0 mi West 9.2 mph - N/A   Clear
3:35 PM 73.9 °F - 41.2 °F 31% 29.92 in 10.0 mi WSW 10.4 mph - N/A   Clear
3:55 PM 74.3 °F - 41.0 °F 30% 29.92 in 10.0 mi West 8.1 mph - N/A   Clear
4:15 PM 74.3 °F - 40.1 °F 29% 29.92 in 10.0 mi West 8.1 mph - N/A   Clear
4:35 PM 74.3 °F - 40.3 °F 29% 29.92 in 10.0 mi West 8.1 mph - N/A   Clear
4:55 PM 74.3 °F - 40.6 °F 30% 29.92 in 10.0 mi West 9.2 mph - N/A   Clear
5:15 PM 74.3 °F - 41.4 °F 31% 29.91 in 10.0 mi West 4.6 mph - N/A   Clear
5:35 PM 72.9 °F - 40.8 °F 31% 29.91 in 10.0 mi West 8.1 mph - N/A   Clear
5:55 PM 70.0 °F - 39.9 °F 33% 29.91 in 10.0 mi West 3.5 mph - N/A   Clear
6:15 PM 69.1 °F - 41.4 °F 37% 29.92 in 10.0 mi West 3.5 mph - N/A   Clear
6:35 PM 65.3 °F - 41.0 °F 41% 29.92 in 10.0 mi West 3.5 mph - N/A   Clear
6:55 PM 62.1 °F - 40.3 °F 45% 29.92 in 10.0 mi Calm Calm - N/A   Clear
7:15 PM 59.2 °F - 41.5 °F 52% 29.92 in 10.0 mi Calm Calm - N/A   Clear
7:35 PM 59.2 °F - 41.0 °F 51% 29.92 in 10.0 mi SW 3.5 mph - N/A   Clear
7:55 PM 55.2 °F - 41.4 °F 60% 29.92 in 10.0 mi Calm Calm - N/A   Clear
8:15 PM 54.0 °F - 41.7 °F 63% 29.92 in 10.0 mi Calm Calm - N/A   Clear
8:35 PM 52.0 °F - 41.9 °F 69% 29.93 in 10.0 mi Calm Calm - N/A   Clear
8:55 PM 51.3 °F - 41.4 °F 69% 29.93 in 10.0 mi Calm Calm - N/A   Clear
9:15 PM 50.7 °F - 41.4 °F 70% 29.92 in 10.0 mi Calm Calm - N/A   Clear
9:35 PM 49.5 °F - 40.8 °F 72% 29.92 in 10.0 mi Calm Calm - N/A   Clear
9:55 PM 49.1 °F - 41.2 °F 74% 29.93 in 10.0 mi Calm Calm - N/A   Clear
10:15 PM 49.1 °F - 41.2 °F 74% 29.93 in 10.0 mi Calm Calm - N/A   Clear
10:35 PM 49.1 °F - 41.5 °F 75% 29.93 in 10.0 mi Calm Calm - N/A   Clear
10:55 PM 49.5 °F - 43.3 °F 79% 29.94 in 10.0 mi North 4.6 mph - N/A   Clear
11:15 PM 52.5 °F - 43.0 °F 70% 29.95 in 10.0 mi Calm Calm - N/A   Clear
11:35 PM 51.4 °F - 42.3 °F 71% 29.94 in 10.0 mi Calm Calm - N/A   Clear
11:55 PM 49.1 °F - 42.3 °F 77% 29.93 in 10.0 mi Calm Calm - N/A   Clear